Location: Gull Harbor
(47.1000°N, 122.9000°W)
Time: 17:51:39
(UTC-08:00)

BlueWalker 3 - Pass Details

Date: 24 December 2025
Orbit: 452 x 463 km, 53.2° (Epoch: 13 January)

Event Time Altitude Azimuth Distance (km) Brightness Sun altitude
Exits shadow 06:54:53 - 259° (W) 1,626 4.0 -10.0°
Reaches altitude 10° 06:54:59 10° 259° (W) 1,589 4.0 -10.0°
Maximum altitude 06:58:29 53° 337° (NNW) 566 1.9 -9.4°
Drops below altitude 10° 07:02:01 10° 56° (NE) 1,601 4.9 -8.9°
Sets 07:04:12 0° 61° (ENE) 2,480 6.0 -8.5°
